Cut Bank, MT

12:08 AM MST on February 10, 2016 (GMT -0700)
Cut Bank Municipal

Weather History for KCTB - August, 2013

Change the Weather History Date:

Friday, August 30, 2013

  Actual Average Record
Temperature  
Mean Temperature 67 °F 60 °F  
Max Temperature 80 °F 75 °F 96 °F (1921)
Min Temperature 54 °F 45 °F 32 °F (2003)
Degree Days  
Heating Degree Days 0 6  
Month to date heating degree days 27 102  
Since 1 June heating degree days 277 421  
Since 1 July heating degree days 68 188  
Cooling Degree Days 2 1  
Month to date cooling degree days 96 64  
Year to date cooling degree days 195 153  
Since 1 June cooling degree days 193 151  
Growing Degree Days 18 (Base 50)    
Moisture  
Dew Point 45 °F    
Average Humidity 50    
Maximum Humidity 72    
Minimum Humidity 27    
Precipitation  
Precipitation 0.00 in 0.04 in 0.72 in (1971)
Month to date precipitation 1.39 1.15  
Year to date precipitation 10.89 8.62  
Snow  
Snow 0.00 in - - ()
Snow Depth 0.00 in    
Sea Level Pressure  
Sea Level Pressure 29.98 in    
Wind  
Wind Speed 15 mph (WSW)    
Max Wind Speed 32 mph    
Max Gust Speed 41 mph    
Visibility 10 miles    
Events      
T = Trace of Precipitation, MM = Missing Value Source: NWS Daily Summary

Daily Weather History Graph

Daily Weather History Graph

Search for Another Location

Airport or City:

Trip Planner

Search our weather history database for the weather conditions in past years. The results will help you decide how hot, cold, wet, or windy it might be!

Date:

Astronomy

Aug. 30, 2013 Rise Set
Actual Time 6:44 AM MDT 8:14 PM MDT
Civil Twilight 6:11 AM MDT 8:47 PM MDT
Nautical Twilight 5:31 AM MDT 9:27 PM MDT
Astronomical Twilight 4:48 AM MDT 10:10 PM MDT
Moon 1:10 AM MDT (8/30) 4:47 PM MDT (8/30)
Length of Visible Light 14h 35m
Length of Day
13h 30m
Waning Crescent, 28% of the Moon is Illuminated
Aug 30
Waning Crescent
Sep 5
New
Sep 12
First Quarter
Sep 19
Full
Sep 26
Last Quarter

Hourly Weather History & Observations

Time (MDT) Temp. Dew Point Humidity Pressure Visibility Wind Dir Wind Speed Gust Speed Precip Events Conditions
12:56 AM 60.1 °F 50.0 °F 69% 29.96 in 10.0 mi WSW 11.5 mph - N/A   Clear
1:56 AM 59.0 °F 48.9 °F 69% 29.96 in 10.0 mi Variable 4.6 mph - N/A   Clear
2:56 AM 57.0 °F 48.9 °F 74% 29.96 in 10.0 mi SE 6.9 mph - N/A   Clear
3:56 AM 57.0 °F 48.9 °F 74% 29.97 in 10.0 mi South 6.9 mph - N/A   Clear
4:56 AM 57.0 °F 46.9 °F 69% 29.97 in 10.0 mi SW 5.8 mph - N/A   Clear
5:56 AM 59.0 °F 46.9 °F 64% 29.98 in 10.0 mi WSW 10.4 mph - N/A   Clear
6:56 AM 57.9 °F 46.9 °F 67% 29.99 in 10.0 mi West 9.2 mph - N/A   Clear
7:56 AM 59.0 °F 48.9 °F 69% 30.03 in 10.0 mi SW 10.4 mph - N/A   Clear
8:56 AM 66.9 °F 50.0 °F 54% 30.00 in 10.0 mi WSW 12.7 mph 18.4 mph N/A   Clear
9:56 AM 70.0 °F 48.9 °F 47% 30.00 in 10.0 mi WSW 13.8 mph 20.7 mph N/A   Clear
10:56 AM 72.0 °F 46.0 °F 40% 29.99 in 10.0 mi West 20.7 mph 25.3 mph N/A   Clear
11:56 AM 77.0 °F 46.0 °F 33% 29.98 in 10.0 mi SW 20.7 mph 28.8 mph N/A   Clear
12:56 PM 79.0 °F 46.0 °F 31% 29.97 in 10.0 mi West 23.0 mph 34.5 mph N/A   Scattered Clouds
1:56 PM 80.1 °F 45.0 °F 29% 29.97 in 10.0 mi WSW 25.3 mph 34.5 mph N/A   Scattered Clouds
2:56 PM 80.1 °F 44.1 °F 28% 29.96 in 10.0 mi WSW 26.5 mph 34.5 mph N/A   Clear
3:56 PM 79.0 °F 42.1 °F 27% 29.95 in 10.0 mi West 24.2 mph 33.4 mph N/A   Clear
4:56 PM 78.1 °F 42.1 °F 28% 29.93 in 10.0 mi WSW 23.0 mph 29.9 mph N/A   Partly Cloudy
5:56 PM 77.0 °F 41.0 °F 28% 29.93 in 10.0 mi WSW 31.1 mph 36.8 mph N/A   Clear
6:56 PM 75.0 °F 39.9 °F 28% 29.95 in 10.0 mi WSW 15.0 mph 25.3 mph N/A   Clear
7:56 PM 70.0 °F 37.9 °F 31% 29.96 in 10.0 mi West 13.8 mph - N/A   Clear
8:56 PM 64.9 °F 37.0 °F 36% 29.98 in 10.0 mi West 5.8 mph - N/A   Partly Cloudy
9:56 PM 61.0 °F 39.0 °F 44% 29.99 in 10.0 mi West 15.0 mph - N/A   Clear
10:56 PM 57.9 °F 39.9 °F 51% 30.01 in 10.0 mi WNW 11.5 mph - N/A   Clear
11:56 PM 55.9 °F 39.9 °F 55% 30.02 in 10.0 mi NW 10.4 mph - N/A   Partly Cloudy